Volver al catálogo

STARLINK-31757

ActivoComunicacionesVLEO
NORAD 59427·PAYLOAD·🇺🇸 United States

Lanzado Apr 7, 2024 desde Vandenberg Space Force Base

Loading…

Próximos Pases (próximas 24 horas)

TLE

ActualizadoSource: CelesTrak SupGP

Época: Sep 15, 2026, 02:17 UTC

1 59427C 24065G   26258.09562500  .00035091  00000+0  10368-2 0  2589
2 59427  53.1567 118.7053 0001242  80.7951 278.4092 15.34373520    16

Sigue STARLINK-31757 en tiempo real con AllMySat

Download on the App Store